• Em Portugal
  • Lista de países
  • Para 7 dias
  • Temperatura da água
  • Mapas de satélite
  • Mapa do tempo
  • Widgets de tempo
  • user-avatar
    Iniciar Sessão

    Previsão horária em Satif

    Hoje, 27 Maio, Domingo

    Tempo Temperatura Precipitação Vento Pressão Humidade
    00:00 +22°C° 0 mm 4 m/s 672 mmHg 32%
    01:00 +22°C° 0 mm 4 m/s 672 mmHg 33%
    02:00 +22°C° 0 mm 4 m/s 672 mmHg 35%
    03:00 +21°C° 0 mm 4 m/s 672 mmHg 37%
    04:00 +21°C° 0 mm 3 m/s 672 mmHg 39%
    05:00 +21°C° 0 mm 3 m/s 672 mmHg 42%
    06:00 +21°C° 0 mm 3 m/s 673 mmHg 44%
    07:00 +23°C° 0,1 mm 4 m/s 673 mmHg 40%
    08:00 +26°C° 0,1 mm 5 m/s 674 mmHg 36%
    09:00 +28°C° 0,1 mm 6 m/s 674 mmHg 32%
    10:00 +27°C° 0,4 mm 5 m/s 674 mmHg 37%
    11:00 +26°C° 0,4 mm 5 m/s 674 mmHg 42%
    12:00 +25°C° 0,4 mm 5 m/s 674 mmHg 46%
    13:00 +26°C° 0,3 mm 4 m/s 674 mmHg 44%
    14:00 +26°C° 0,3 mm 4 m/s 674 mmHg 42%
    15:00 +27°C° 0,3 mm 3 m/s 674 mmHg 40%
    16:00 +26°C° 0 mm 3 m/s 673 mmHg 41%
    17:00 +26°C° 0 mm 3 m/s 673 mmHg 41%
    18:00 +26°C° 0 mm 3 m/s 673 mmHg 42%
    19:00 +25°C° 0 mm 3 m/s 673 mmHg 49%
    20:00 +22°C° 0 mm 3 m/s 673 mmHg 56%
    21:00 +20°C° 0 mm 3 m/s 672 mmHg 63%
    22:00 +20°C° 0,1 mm 3 m/s 672 mmHg 66%
    23:00 +19°C° 0,1 mm 3 m/s 672 mmHg 68%

    Amanhã, 28 Maio, Segunda-feira

    Tempo Temperatura Precipitação Vento Pressão Humidade
    00:00 +19°C° 0,1 mm 3 m/s 672 mmHg 71%
    01:00 +18°C° 0 mm 3 m/s 672 mmHg 74%
    02:00 +17°C° 0 mm 3 m/s 671 mmHg 77%
    03:00 +17°C° 0 mm 3 m/s 671 mmHg 79%
    04:00 +17°C° 0 mm 3 m/s 671 mmHg 78%
    05:00 +17°C° 0 mm 3 m/s 671 mmHg 77%
    06:00 +17°C° 0 mm 3 m/s 671 mmHg 76%
    07:00 +19°C° 0 mm 3 m/s 671 mmHg 70%
    08:00 +20°C° 0 mm 4 m/s 671 mmHg 63%
    09:00 +22°C° 0 mm 4 m/s 671 mmHg 57%
    10:00 +22°C° 0 mm 4 m/s 671 mmHg 55%
    11:00 +23°C° 0 mm 4 m/s 672 mmHg 53%
    12:00 +25°C° 0 mm 3 m/s 672 mmHg 51%
    13:00 +25°C° 0 mm 3 m/s 671 mmHg 52%
    14:00 +25°C° 0 mm 3 m/s 671 mmHg 53%
    15:00 +25°C° 0 mm 3 m/s 671 mmHg 53%
    16:00 +22°C° 0 mm 4 m/s 670 mmHg 62%
    17:00 +21°C° 0 mm 4 m/s 670 mmHg 70%
    18:00 +19°C° 0 mm 5 m/s 670 mmHg 79%
    19:00 +18°C° 0 mm 4 m/s 670 mmHg 80%
    20:00 +17°C° 0 mm 3 m/s 671 mmHg 81%
    21:00 +17°C° 0 mm 3 m/s 671 mmHg 83%
    22:00 +16°C° 0 mm 3 m/s 671 mmHg 83%
    23:00 +16°C° 0 mm 2 m/s 671 mmHg 84%

    Depois de amanhã, 29 Maio, Terça-feira

    Tempo Temperatura Precipitação Vento Pressão Humidade
    00:00 +16°C° 0 mm 2 m/s 671 mmHg 85%
    01:00 +15°C° 0 mm 2 m/s 671 mmHg 86%
    02:00 +15°C° 0 mm 2 m/s 671 mmHg 87%
    03:00 +15°C° 0 mm 2 m/s 670 mmHg 88%
    04:00 +15°C° 0 mm 2 m/s 670 mmHg 87%
    05:00 +15°C° 0 mm 2 m/s 670 mmHg 86%
    06:00 +15°C° 0 mm 2 m/s 670 mmHg 85%
    07:00 +16°C° 0 mm 2 m/s 671 mmHg 81%
    08:00 +17°C° 0 mm 2 m/s 671 mmHg 77%
    09:00 +17°C° 0 mm 2 m/s 671 mmHg 73%
    10:00 +19°C° 0 mm 2 m/s 671 mmHg 68%
    11:00 +20°C° 0 mm 2 m/s 672 mmHg 62%
    12:00 +21°C° 0 mm 3 m/s 672 mmHg 57%
    13:00 +22°C° 0 mm 3 m/s 672 mmHg 55%
    14:00 +22°C° 0 mm 3 m/s 672 mmHg 52%
    15:00 +24°C° 0 mm 3 m/s 671 mmHg 50%
    16:00 +22°C° 0 mm 3 m/s 671 mmHg 54%
    17:00 +21°C° 0 mm 3 m/s 671 mmHg 58%
    18:00 +21°C° 0 mm 3 m/s 671 mmHg 62%
    19:00 +19°C° 0 mm 3 m/s 671 mmHg 68%
    20:00 +18°C° 0 mm 2 m/s 671 mmHg 74%
    21:00 +17°C° 0 mm 2 m/s 671 mmHg 80%
    22:00 +17°C° 0 mm 2 m/s 671 mmHg 81%
    23:00 +16°C° 0 mm 2 m/s 670 mmHg 83%

    30 Maio, Quarta-feira

    Tempo Temperatura Precipitação Vento Pressão Humidade
    00:00 +16°C° 0 mm 2 m/s 670 mmHg 84%
    01:00 +16°C° 0 mm 2 m/s 670 mmHg 84%
    02:00 +15°C° 0 mm 2 m/s 670 mmHg 85%
    03:00 +15°C° 0 mm 2 m/s 669 mmHg 85%
    04:00 +15°C° 0 mm 2 m/s 670 mmHg 83%
    05:00 +16°C° 0 mm 2 m/s 670 mmHg 80%
    06:00 +16°C° 0 mm 2 m/s 670 mmHg 78%
    07:00 +18°C° 0 mm 2 m/s 671 mmHg 68%
    08:00 +20°C° 0 mm 2 m/s 672 mmHg 59%
    09:00 +23°C° 0 mm 2 m/s 672 mmHg 49%
    10:00 +24°C° 0 mm 2 m/s 672 mmHg 45%
    11:00 +25°C° 0 mm 3 m/s 672 mmHg 42%
    12:00 +27°C° 0 mm 3 m/s 673 mmHg 38%
    13:00 +27°C° 0,2 mm 4 m/s 672 mmHg 39%
    14:00 +27°C° 0,2 mm 4 m/s 672 mmHg 40%
    15:00 +27°C° 0,2 mm 5 m/s 672 mmHg 41%
    16:00 +25°C° 0,7 mm 4 m/s 671 mmHg 49%
    17:00 +23°C° 0,7 mm 4 m/s 671 mmHg 56%
    18:00 +21°C° 0,7 mm 3 m/s 671 mmHg 63%
    19:00 +20°C° 0,4 mm 3 m/s 671 mmHg 70%
    20:00 +19°C° 0,4 mm 3 m/s 671 mmHg 77%
    21:00 +18°C° 0,4 mm 3 m/s 671 mmHg 84%
    22:00 +17°C° 0,2 mm 3 m/s 671 mmHg 85%
    23:00 +17°C° 0,2 mm 3 m/s 671 mmHg 86%

    31 Maio, Quinta-feira

    Tempo Temperatura Precipitação Vento Pressão Humidade
    00:00 +16°C° 0,2 mm 3 m/s 671 mmHg 87%
    01:00 +16°C° 0,2 mm 2 m/s 671 mmHg 87%
    02:00 +16°C° 0,2 mm 2 m/s 671 mmHg 88%
    03:00 +16°C° 0,2 mm 2 m/s 671 mmHg 88%
    04:00 +16°C° 1 mm 2 m/s 671 mmHg 87%
    05:00 +16°C° 1 mm 2 m/s 671 mmHg 87%
    06:00 +16°C° 1 mm 2 m/s 672 mmHg 86%
    07:00 +17°C° 0,3 mm 2 m/s 672 mmHg 82%
    08:00 +18°C° 0,3 mm 2 m/s 672 mmHg 78%
    09:00 +19°C° 0,3 mm 2 m/s 672 mmHg 74%
    10:00 +20°C° 0 mm 2 m/s 673 mmHg 70%
    11:00 +21°C° 0 mm 2 m/s 673 mmHg 66%
    12:00 +23°C° 0 mm 2 m/s 673 mmHg 61%
    13:00 +22°C° 0,2 mm 3 m/s 673 mmHg 61%
    14:00 +24°C° 0,2 mm 3 m/s 673 mmHg 60%
    15:00 +24°C° 0,2 mm 3 m/s 673 mmHg 59%
    16:00 +22°C° 1,1 mm 3 m/s 672 mmHg 65%
    17:00 +21°C° 1,1 mm 4 m/s 672 mmHg 71%
    18:00 +19°C° 1,1 mm 4 m/s 672 mmHg 77%
    19:00 +19°C° 0,4 mm 3 m/s 672 mmHg 80%
    20:00 +18°C° 0,4 mm 2 m/s 673 mmHg 82%
    21:00 +17°C° 0,4 mm 2 m/s 673 mmHg 85%
    22:00 +17°C° 0 mm 2 m/s 673 mmHg 86%
    23:00 +18°C° 0 mm 1 m/s 673 mmHg 86%

    1 Junho, Sexta-feira

    Tempo Temperatura Precipitação Vento Pressão Humidade
    00:00 +18°C° 0 mm 1 m/s 673 mmHg 87%
    01:00 +16°C° 0 mm 1 m/s 672 mmHg 87%
    02:00 +16°C° 0 mm 1 m/s 672 mmHg 88%
    03:00 +16°C° 0 mm 1 m/s 672 mmHg 89%
    04:00 +16°C° 0 mm 1 m/s 672 mmHg 87%
    05:00 +18°C° 0 mm 1 m/s 673 mmHg 85%
    06:00 +18°C° 0 mm 1 m/s 673 mmHg 83%
    07:00 +20°C° 0 mm 1 m/s 673 mmHg 75%
    08:00 +21°C° 0 mm 1 m/s 674 mmHg 67%
    09:00 +23°C° 0 mm 1 m/s 674 mmHg 58%
    10:00 +24°C° 0 mm 1 m/s 674 mmHg 53%
    11:00 +25°C° 0 mm 2 m/s 674 mmHg 49%
    12:00 +27°C° 0 mm 2 m/s 674 mmHg 44%
    13:00 +27°C° 0 mm 2 m/s 674 mmHg 45%
    14:00 +27°C° 0 mm 2 m/s 674 mmHg 46%
    15:00 +27°C° 0 mm 3 m/s 674 mmHg 47%
    16:00 +26°C° 0 mm 3 m/s 674 mmHg 53%
    17:00 +25°C° 0 mm 3 m/s 674 mmHg 58%
    18:00 +22°C° 0 mm 3 m/s 673 mmHg 63%
    19:00 +22°C° 1,9 mm 3 m/s 674 mmHg 66%
    20:00 +21°C° 1,9 mm 3 m/s 674 mmHg 69%
    21:00 +20°C° 1,9 mm 3 m/s 674 mmHg 72%
    22:00 +20°C° 0,5 mm 2 m/s 674 mmHg 73%
    23:00 +20°C° 0,5 mm 2 m/s 674 mmHg 73%
    Mostrar mais